sat.trackr.live / text

‹ back to catalog

STARLINK-1307

NORAD 45397 · 2020-019AP

PAYLOAD ACTIVE UNKNOWN

§ Identity

Operator
Country
US
Launch date
2020-03-18
Launch site
AFETR
Launch vehicle
Mass (kg)
RCS (m²)

Purposes: comms

External: N2YO · Heavens-Above · Gunter

§ Orbital elements

Epoch: 2026-09-19T15:33:45.330048Z

Period
92.07 min
Inclination
53.0484°
Eccentricity
0.0003442
Mean motion
15.63975936 rev/d
Perigee alt
373.9 km
Apogee alt
378.5 km
Semi-major
6,754.3 km
B*
3.5966e-4
RAAN
270.0854°
Arg perigee
61.4173°
Mean anomaly
298.7187°
Rev number
36,027

§ Raw data

STARLINK-13071 45397U 20019AP  26262.64844132  .00034158  00000+0  35966-3 0  99922 45397  53.0484 270.0854 0003442  61.4173 298.7187 15.63975936360279

JSON: /api/v1/satellites/45397 · /tle

For live sub-satellite position, see the globe view (requires WebGL).

§ Visibility from observer

Set your observer location to see the next 7 days of passes ≥ 10°. The values pass through the URL so the page stays shareable.

No JS? Fill the form by hand. The geolocation button needs JavaScript.